User: anonymous   Login
Location: Parc des �les de St-Timoth�e
(45.2924°N, 74.0481°W)
Time: 04:01:48
(UTC-04:00)
Language:

Cosmos 2173 Rocket - Orbit

View from above orbital plane
View from above orbital plane
View from above satellite
View from above satellite

Ground track
Ground track

The orbit data is extracted from the following two-line orbital elements,

1 21797U 91081B   16121.19529650  .00000058  00000-0  42149-4 0  9990
2 21797  82.9564   8.8824 0038300 163.5392   8.5497 13.77367882227540
Epoch (UTC): 30 April 2016 04:41:13
Eccentricity: 0.0038300
inclination: 82.9564°
perigee height: 945 km
apogee height: 1001 km
right ascension of ascending node: 8.8824°
argument of perigee: 163.5392°
revolutions per day: 13.77367882
mean anomaly at epoch: 8.5497°
orbit number at epoch: 22754

The dashed part of the orbit path shows where the satellite is in the earth's shadow,  

DLR